VK6WB Weather Reports


time (UTC)temp
C
wind
direction
speed
KPH
gust
KPH
rain 1hr
cm
rain 24hr
cm
rain mn
cm
humidity
%
barometer
mb
20260505041004 21 283 3.2 11.3 0.00 0.00 0.00 30 1021.8
20260505040005 21 268 3.2 12.9 0.00 0.00 0.00 30 1021.8
20260505035004 22 269 3.2 8.0 0.00 0.00 0.00 25 1022.0
20260505034005 22 258 4.8 16.1 0.00 0.00 0.00 23 1022.1
20260505033004 21 265 9.7 16.1 0.00 0.00 0.00 21 1022.1
20260505032004 21 240 3.2 12.9 0.00 0.00 0.00 18 1022.4
20260505031004 21 229 6.4 14.5 0.00 0.00 0.00 16 1022.4
20260505030004 21 245 6.4 12.9 0.00 0.00 0.00 13 1022.4
20260505025004 21 307 6.4 12.9 0.00 0.00 0.00 11 1022.6
20260505024004 21 237 3.2 14.5 0.00 0.00 0.00 10 1022.5
20260505023004 20 232 3.2 12.9 0.00 0.00 0.00 10 1022.6
20260505022004 21 236 6.4 12.9 0.00 0.00 0.00 10 1022.5
20260505021004 20 215 6.4 16.1 0.00 0.00 0.00 10 1022.6
20260505020004 19 229 6.4 17.7 0.00 0.00 0.00 10 1022.6
20260505015004 18 255 6.4 12.9 0.00 0.00 0.00 10 1022.7
20260505014004 18 242 6.4 12.9 0.00 0.00 0.00 10 1022.7
20260505013005 17 241 6.4 12.9 0.00 0.00 0.00 10 1022.8
20260505012004 17 252 6.4 16.1 0.00 0.00 0.00 10 1022.9
20260505011004 16 269 6.4 16.1 0.00 0.00 0.00 10 1022.8
20260505010005 16 246 4.8 17.7 0.00 0.00 0.00 10 1022.8
20260505005004 15 229 8.0 19.3 0.00 0.00 0.00 10 1022.7
20260505004004 15 244 8.0 16.1 0.00 0.00 0.00 10 1022.6
20260505003005 8 256 6.4 14.5 0.00 0.00 0.00 10 1022.8
20260505002004 15 256 8.0 12.9 0.00 0.00 0.00 10 1022.5
20260505001004 13 263 3.2 12.9 0.00 0.00 0.00 10 1022.5
20260505000005 13 256 4.8 14.5 0.00 0.00 0.00 10 1022.4
20260504235003 13 273 6.4 14.5 0.00 0.00 0.00 10 1022.3
20260504234004 12 268 6.4 11.3 0.00 0.00 0.00 10 1022.2
20260504233004 11 271 3.2 11.3 0.00 0.00 0.00 10 1022.0
20260504232004 11 273 4.8 11.3 0.00 0.00 0.00 10 1021.9
20260504231004 11 293 4.8 8.0 0.00 0.00 0.00 10 1021.9
20260504230004 10 282 3.2 6.4 0.00 0.00 0.00 10 1021.7
20260504225004 10 273 3.2 6.4 0.00 0.00 0.00 10 1021.7
20260504224004 10 286 3.2 6.4 0.00 0.00 0.00 10 1021.5
20260504223004 10 277 3.2 6.4 0.00 0.00 0.00 10 1021.4
20260504222004 11 284 3.2 6.4 0.00 0.00 0.00 10 1021.3
20260504221003 11 274 3.2 9.7 0.00 0.00 0.00 10 1021.2
20260504220004 11 282 3.2 8.0 0.00 0.00 0.00 10 1021.1
20260504215004 11 270 3.2 9.7 0.00 0.00 0.00 10 1021.1
20260504214003 11 295 4.8 11.3 0.00 0.00 0.00 10 1021.0
20260504213004 11 275 6.4 12.9 0.00 0.00 0.00 10 1021.0
20260504212004 11 291 6.4 12.9 0.00 0.00 0.00 12 1021.0
20260504211003 11 304 6.4 14.5 0.00 0.00 0.00 14 1021.0
20260504210004 11 289 6.4 14.5 0.00 0.00 0.00 16 1021.0
20260504205003 11 297 6.4 12.9 0.00 0.00 0.00 18 1021.0
20260504204003 11 309 6.4 11.3 0.00 0.00 0.00 20 1020.9
20260504203004 11 300 6.4 12.9 0.00 0.00 0.00 20 1021.0
20260504202003 12 313 6.4 14.5 0.00 0.00 0.00 21 1021.1
20260504201004 12 308 6.4 12.9 0.00 0.00 0.00 23 1021.1
20260504200004 12 296 6.4 14.5 0.00 0.00 0.00 22 1021.1
20260504195003 12 297 6.4 14.5 0.00 0.00 0.00 22 1021.2
20260504194005 12 283 6.4 14.5 0.00 0.00 0.00 24 1021.2
20260504193005 12 311 6.4 12.9 0.00 0.00 0.00 26 1021.2
20260504192005 12 303 6.4 12.9 0.00 0.00 0.00 27 1021.2
20260504191006 12 294 6.4 14.5 0.00 0.00 0.00 29 1021.3
20260504190005 12 292 8.0 14.5 0.00 0.00 0.00 30 1021.3
20260504185005 12 297 4.8 12.9 0.00 0.00 0.00 32 1021.4
20260504184005 12 286 6.4 12.9 0.00 0.00 0.00 33 1021.4
20260504183005 12 298 6.4 12.9 0.00 0.00 0.00 34 1021.6
20260504182005 12 310 6.4 12.9 0.00 0.00 0.00 35 1021.6
20260504181005 12 306 1.6 14.5 0.00 0.00 0.00 34 1021.7
20260504180005 12 313 6.4 12.9 0.00 0.00 0.00 34 1021.6
20260504175005 12 310 6.4 14.5 0.00 0.00 0.00 35 1021.5
20260504174005 12 284 6.4 11.3 0.00 0.00 0.00 36 1021.6
20260504173005 12 296 6.4 11.3 0.00 0.00 0.00 37 1021.7
20260504172005 12 298 4.8 9.7 0.00 0.00 0.00 38 1021.7
20260504171005 12 294 4.8 9.7 0.00 0.00 0.00 39 1021.6
20260504151005 13 300 3.2 6.4 0.00 0.00 0.00 46 1022.0
20260504141005 14 312 3.2 6.4 0.00 0.00 0.00 47 1022.3
20260504082004 22 23 9.7 17.7 0.00 0.00 0.00 49 1020.9
20260504081005 23 13 4.8 12.9 0.00 0.00 0.00 44 1020.8
20260504050005 21 284 1.6 14.5 0.00 0.00 0.00 31 1021.8